[[{"header":{"parameterUnit":"m.s-1","parameterCategory":1,"la1":30.2991,"la2":30.254,"lo1":-89.0895,"lo2":-89.0444,"dy":0.0017,"dx":0.0017,"nx":28,"ny":28,"refTime":"2023-10-22T09:00:00:Z","depth":0,"parameterNumber":2,"parameterNumberName":"U-component_of_WINDS"},"data":[0,0,0,0,0,0,0,0,0,0,0,0,0,0,0,0,0,0,0,0,0,0,0,0,0,0,0,0,0,0,0,0,0,0,0,0,0,0,0,0,0,0,0,0,0,0,0,0,0,0,0,0,0,0,0,0,0,0,-3.592,-3.592,0,-3.598,-3.5981,-3.5982,-3.5936,-3.5934,-3.5932,-3.593,-3.5993,-3.5996,-3.6,0,0,0,0,0,0,0,0,0,0,0,0,0,-3.5766,-3.5769,-3.592,-3.592,-3.5921,-3.598,-3.5981,-3.5982,-3.5936,-3.5934,-3.5931,-3.5929,-3.5992,-3.5996,-3.6,0,0,0,0,0,0,0,0,0,0,0,0,0,-3.583,-3.577,-3.592,-3.5905,-3.5905,-3.598,-3.5981,-3.5982,-3.5937,-3.5934,-3.5931,-3.5928,-3.599,-3.5995,-3.6,-3.6093,0,0,-3.6017,-3.6019,0,0,0,0,0,0,0,0,-3.5827,-3.5836,-3.5907,-3.5907,-3.5906,-3.5947,-3.595,-3.6019,-3.5937,-3.5925,-3.593,-3.5926,-3.598,-3.5986,-3.6004,-3.6096,-3.6099,-3.6017,-3.602,-3.6023,-3.6024,0,0,0,0,0,0,0,-3.5822,-3.5833,-3.5944,-3.5908,-3.5907,-3.5897,-3.5903,-3.5963,-3.5968,-3.5926,-3.5922,-3.593,-3.5979,-3.5999,-3.6005,-3.61,-3.6017,-3.6022,-3.6025,-3.6027,-3.6272,-3.6275,0,0,0,0,0,0,-3.5819,-3.583,-3.5942,-3.5945,-3.5858,-3.5902,-3.5908,-3.5937,-3.5968,-3.5969,-3.5933,-3.5928,-3.5991,-3.5999,-3.6007,-3.6117,-3.6023,-3.6028,-3.6031,-3.6269,-3.6273,-3.6276,0,0,0,0,0,0,-3.5816,-3.5829,-3.5939,-3.5887,-3.59,-3.5908,-3.594,-3.594,-3.5959,-3.5973,-3.5974,-3.5952,-3.5989,-3.6,-3.6072,-3.6119,-3.603,-3.6035,-3.6265,-3.627,-3.6274,-3.6338,0,0,0,0,0,0,-3.5812,-3.5828,-3.5863,-3.5888,-3.5903,-3.6003,-3.5943,-3.5943,-3.5969,-3.5963,-3.5991,-3.5993,-3.5988,-3.6065,-3.6077,-3.6124,-3.6039,-3.626,-3.6267,-3.6273,-3.6332,-3.6345,-3.6356,0,0,0,0,0,-3.5806,-3.5879,-3.5865,-3.5879,-3.5946,-3.6006,-3.6014,-3.6007,-3.5973,-3.6008,-3.6017,-3.5992,-3.6112,-3.6072,-3.6087,-3.6136,-3.6257,-3.6265,-3.6272,-3.6327,-3.6342,-3.6356,0,0,0,0,0,0,-3.5858,-3.5881,-3.5867,-3.5949,-3.5976,-3.5998,-3.6041,-3.6024,-3.606,-3.6053,-3.6043,-3.605,-3.6126,-3.6139,-3.6094,-3.6228,-3.6179,-3.619,-3.6216,-3.6231,-3.6243,-3.6237,-3.6043,0,0,0,0,0,-3.588,-3.5926,-3.5944,-3.6015,-3.6029,-3.6033,-3.6059,-3.6051,-3.6078,-3.6089,-3.6103,-3.6131,-3.6175,-3.6204,-3.6246,-3.6335,-3.634,-3.6376,-3.6388,-3.6398,-3.6406,-3.6455,-3.6471,-3.6301,-3.6301,-3.6301,0,0,-3.5924,-3.5942,-3.5972,-3.6026,-3.6045,-3.6093,-3.6043,-3.6096,-3.6131,-3.6097,-3.6166,-3.6178,-3.6209,-3.629,-3.6327,-3.6303,-3.6455,-3.6407,-3.6415,-3.6418,-3.6464,-3.648,-3.6495,-3.6306,-3.6305,-3.6304,0,0,-3.6028,-3.6047,-3.6108,-3.613,-3.616,-3.6163,-3.6178,-3.6204,-3.621,-3.6279,-3.6255,-3.6298,-3.6374,-3.6397,-3.6419,-3.6535,-3.6513,-3.6549,-3.661,-3.6658,-3.6671,-3.6683,-3.6724,-3.6738,-3.6558,-3.6558,-3.6558,0,-3.6079,-3.6149,-3.6142,-3.6197,-3.6222,-3.6194,-3.6257,-3.6278,-3.6321,-3.6339,-3.6312,-3.6408,-3.6426,-3.6513,-3.6541,-3.656,-3.6577,-3.6544,-3.667,-3.6682,-3.6692,-3.6731,-3.6747,-3.6562,-3.6562,-3.6561,-3.6561,0,-3.621,-3.626,-3.6306,-3.6348,-3.6379,-3.6437,-3.6439,-3.6471,-3.6462,-3.6468,-3.654,-3.6562,-3.6607,-3.6628,-3.6619,-3.6714,-3.6698,-3.6671,-3.6622,-3.6713,-3.6749,-3.6764,-3.6568,-3.6567,-3.6565,-3.6564,0,0,-3.6346,-3.6385,-3.6402,-3.6421,-3.6454,-3.6493,-3.6551,-3.6596,-3.6623,-3.6655,-3.6703,-3.677,-3.6745,-3.677,-3.6764,-3.6806,-3.6897,-3.6774,-3.6775,-3.6795,-3.7002,-3.702,-3.7038,-3.6884,-3.6887,-3.6889,-3.6999,0,-3.645,-3.655,-3.6547,-3.664,-3.6686,-3.6663,-3.6714,-3.674,-3.6748,-3.6789,-3.6799,-3.6846,-3.681,-3.6825,-3.6866,-3.6877,-3.6938,-3.6869,-3.6928,-3.693,-3.6919,-3.7057,-3.7076,-3.7178,-3.7013,-3.7016,-3.7017,0,-3.6585,-3.6621,-3.672,-3.6747,-3.6766,-3.6812,-3.6853,-3.6893,-3.6923,-3.6926,-3.6955,-3.6944,-3.7003,-3.6955,-3.7038,-3.6991,-3.7016,-3.7026,-3.7029,-3.7033,-3.6977,-3.7062,-3.7211,-3.7225,-3.704,-3.7038,-3.7036,0,-3.6672,-3.6746,-3.6814,-3.6832,-3.6866,-3.6899,-3.6915,-3.6942,-3.697,-3.7007,-3.7025,-3.7069,-3.7092,-3.7127,-3.7127,-3.7092,-3.7211,-3.7163,-3.7215,-3.7215,-3.7238,-3.7236,-3.7391,-3.7258,-3.7258,-3.7258,-3.7257,0,-3.6788,-3.6849,-3.6854,-3.6896,-3.6964,-3.696,-3.7028,-3.7041,-3.7066,-3.711,-3.7094,-3.7136,-3.7136,-3.7179,-3.7181,-3.7249,-3.726,-3.7264,-3.7264,-3.7265,-3.7264,-3.7278,-3.7271,-3.7262,-3.7261,-3.726,-3.7259,0,-3.6896,-3.6902,-3.6974,-3.7002,-3.701,-3.7059,-3.7083,-3.7123,-3.7131,-3.7188,-3.7201,-3.7213,-3.7264,-3.7269,-3.7328,-3.7329,-3.7411,-3.7404,-3.74,-3.7398,-3.745,-3.7444,-3.7618,-3.764,-3.7494,-3.7496,-3.7497,0,-3.6968,-3.7014,-3.7047,-3.7075,-3.7093,-3.714,-3.7168,-3.7167,-3.7198,-3.7237,-3.7273,-3.7322,-3.7361,-3.7443,-3.7458,-3.7503,-3.7496,-3.7554,-3.7502,-3.7502,-3.7495,-3.7491,-3.7496,-3.7563,-3.7564,-3.7566,-3.7567,0,-3.7095,-3.7096,-3.7137,-3.7181,-3.7215,-3.7249,-3.7281,-3.7306,-3.7309,-3.7345,-3.7396,-3.7427,-3.7487,-3.7536,-3.7582,-3.7599,-3.7584,-3.7584,-3.7598,-3.7598,-3.7593,-3.7595,-3.7425,-3.7579,-3.7577,-3.7576,-3.7576,-3.7575,-3.7186,-3.7226,-3.7256,-3.7303,-3.7327,-3.7358,-3.7397,-3.741,-3.7453,-3.7502,-3.75,-3.7557,-3.7588,-3.7647,-3.7668,-3.7714,-3.7694,-3.7715,-3.772,-3.7725,-3.7729,-3.7588,-3.7722,-3.7722,-3.7722,-3.7721,-3.7721,0,-3.7311,-3.7329,-3.7373,-3.7418,-3.7456,-3.7439,-3.7474,-3.7507,-3.7557,-3.7587,-3.7626,-3.7686,-3.7735,-3.7755,-3.7802,-3.7834,-3.7829,-3.7847,-3.7843,-3.7847,-3.7744,-3.7726,-3.7851,-3.7851,-3.7851,-3.785,-3.785,-3.785,-3.738,-3.7447,-3.7452,-3.7532,-3.755,-3.7605,-3.7627,-3.7655,-3.768,-3.7747,-3.7787,-3.78,-3.7827,-3.7876,-3.792,-3.7925,-3.7943,-3.7964,-3.7965,-3.7868,-3.7855,-3.7842,-3.7825,-3.7968,-3.7968,-3.8064,-3.8065,-3.8066]},{"header":{"parameterUnit":"m.s-1","parameterCategory":1,"la1":30.2991,"la2":30.254,"lo1":-89.0895,"lo2":-89.0444,"dy":0.0017,"dx":0.0017,"nx":28,"ny":28,"refTime":"2023-10-22T09:00:00:Z","depth":0,"parameterNumber":3,"parameterNumberName":"V-component_of_WINDS"},"data":[0,0,0,0,0,0,0,0,0,0,0,0,0,0,0,0,0,0,0,0,0,0,0,0,0,0,0,0,0,0,0,0,0,0,0,0,0,0,0,0,0,0,0,0,0,0,0,0,0,0,0,0,0,0,0,0,0,0,1.8409,1.8409,0,1.8465,1.8465,1.8466,1.8462,1.8462,1.8461,1.846,1.8513,1.8515,1.8517,0,0,0,0,0,0,0,0,0,0,0,0,0,1.8295,1.8298,1.8408,1.8409,1.841,1.8465,1.8465,1.8466,1.8462,1.8461,1.8461,1.846,1.8512,1.8515,1.8517,0,0,0,0,0,0,0,0,0,0,0,0,0,1.8347,1.8298,1.8408,1.8415,1.8416,1.8464,1.8465,1.8466,1.8463,1.8461,1.846,1.8459,1.8511,1.8515,1.8518,1.8562,0,0,1.8528,1.8529,0,0,0,0,0,0,0,0,1.8344,1.8351,1.8413,1.8414,1.8416,1.8455,1.8445,1.8498,1.8463,1.8445,1.846,1.8459,1.8494,1.8499,1.8512,1.8565,1.8567,1.8528,1.853,1.8531,1.8532,0,0,0,0,0,0,0,1.8341,1.8349,1.8431,1.8414,1.8416,1.8414,1.842,1.8455,1.8476,1.8446,1.8446,1.8453,1.8495,1.8509,1.8513,1.8568,1.8528,1.8531,1.8533,1.8534,1.8662,1.8663,0,0,0,0,0,0,1.8336,1.8346,1.8429,1.8432,1.8377,1.8417,1.8424,1.8444,1.8475,1.8479,1.8454,1.8453,1.8504,1.8509,1.8515,1.8571,1.8531,1.8534,1.8536,1.866,1.8662,1.8664,0,0,0,0,0,0,1.8334,1.8344,1.8426,1.8389,1.84,1.842,1.8443,1.8446,1.846,1.8481,1.8484,1.8465,1.8503,1.8511,1.8551,1.8573,1.8536,1.8539,1.8659,1.8661,1.8663,1.8682,0,0,0,0,0,0,1.8331,1.8343,1.836,1.839,1.8402,1.8463,1.8444,1.8448,1.8466,1.8465,1.8492,1.8496,1.8503,1.8547,1.8555,1.8576,1.8541,1.8657,1.866,1.8662,1.8679,1.8684,1.8689,0,0,0,0,0,1.8327,1.8362,1.8361,1.8371,1.8424,1.8464,1.847,1.848,1.8467,1.8485,1.8499,1.8495,1.8569,1.8551,1.856,1.8583,1.8656,1.8659,1.8662,1.8677,1.8683,1.8688,0,0,0,0,0,0,1.8332,1.8365,1.8365,1.8411,1.8435,1.8463,1.8485,1.8485,1.8512,1.8509,1.8518,1.8524,1.8566,1.8578,1.8557,1.8629,1.8611,1.8616,1.8619,1.8625,1.863,1.8626,1.8544,0,0,0,0,0,1.8339,1.8369,1.8396,1.8434,1.8447,1.8464,1.8482,1.8487,1.8511,1.8521,1.8538,1.856,1.8589,1.8608,1.8635,1.8681,1.8688,1.8702,1.8706,1.871,1.8714,1.8742,1.8749,1.8674,1.8674,1.8674,0,0,1.8352,1.8374,1.8393,1.8436,1.8455,1.8486,1.8472,1.8505,1.8528,1.8525,1.8566,1.8579,1.8605,1.865,1.867,1.8661,1.8737,1.8714,1.8717,1.8719,1.8746,1.8753,1.8759,1.8677,1.8676,1.8676,0,0,1.8393,1.8413,1.8448,1.8468,1.8498,1.851,1.8519,1.8548,1.8557,1.8599,1.8598,1.8625,1.8673,1.8693,1.8709,1.8761,1.8758,1.877,1.8793,1.882,1.8826,1.8831,1.8851,1.8858,1.8774,1.8774,1.8774,0,1.8406,1.8454,1.8465,1.85,1.8519,1.852,1.8556,1.8574,1.8611,1.8624,1.8615,1.8678,1.8695,1.8745,1.8758,1.8771,1.8781,1.8766,1.8824,1.883,1.8835,1.8854,1.8861,1.8775,1.8775,1.8775,1.8775,0,1.8469,1.8502,1.8527,1.8565,1.8587,1.8622,1.8638,1.8659,1.8663,1.8676,1.8719,1.874,1.8773,1.8785,1.8788,1.8837,1.8831,1.8823,1.8805,1.8843,1.8861,1.8868,1.8777,1.8777,1.8776,1.8776,0,0,1.8513,1.856,1.8568,1.8587,1.8622,1.8647,1.8682,1.8717,1.8735,1.8761,1.8791,1.8834,1.8828,1.8846,1.8851,1.8875,1.8917,1.8864,1.8865,1.8874,1.8973,1.8979,1.8987,1.8915,1.8917,1.8918,1.8971,0,1.8558,1.8623,1.8635,1.869,1.8722,1.8725,1.8756,1.878,1.8794,1.8822,1.8836,1.8868,1.8856,1.8868,1.8891,1.8907,1.8937,1.8903,1.8943,1.8944,1.8937,1.8996,1.9002,1.9052,1.8978,1.8979,1.898,0,1.8619,1.865,1.8709,1.8743,1.8756,1.8784,1.8818,1.8845,1.8873,1.8881,1.8904,1.8907,1.8944,1.8925,1.8975,1.8952,1.897,1.898,1.8982,1.8986,1.8964,1.9003,1.9067,1.9075,1.8991,1.899,1.8989,0,1.8648,1.8703,1.8747,1.8762,1.8801,1.8821,1.8838,1.8865,1.8886,1.8915,1.8929,1.8961,1.8979,1.9003,1.9016,1.9,1.9066,1.9048,1.9074,1.9074,1.9088,1.9087,1.9157,1.9098,1.9098,1.9098,1.9097,0,1.8697,1.8734,1.876,1.8787,1.8828,1.8842,1.8882,1.8899,1.8924,1.8953,1.8957,1.8985,1.8999,1.9029,1.9038,1.908,1.9087,1.9095,1.9097,1.9095,1.9094,1.9107,1.9104,1.91,1.9099,1.9099,1.9098,0,1.8735,1.8754,1.8802,1.8837,1.8846,1.8875,1.8905,1.8931,1.8945,1.8983,1.8992,1.9015,1.905,1.9065,1.9108,1.9115,1.9163,1.9162,1.9154,1.9155,1.9181,1.9179,1.9261,1.9274,1.9206,1.9207,1.9207,0,1.8766,1.8795,1.8834,1.8855,1.8873,1.8907,1.8929,1.8945,1.8967,1.9004,1.9025,1.9061,1.9091,1.9148,1.9167,1.92,1.9201,1.9227,1.9205,1.9203,1.9202,1.9201,1.9204,1.9231,1.9232,1.9233,1.9233,0,1.8819,1.8828,1.8861,1.8898,1.8925,1.8954,1.8983,1.9,1.9019,1.9045,1.9083,1.9106,1.9152,1.9187,1.9222,1.9239,1.924,1.924,1.9248,1.9246,1.9241,1.9246,1.9166,1.9238,1.9237,1.9237,1.9237,1.9237,1.8855,1.8882,1.8915,1.8952,1.8975,1.9003,1.903,1.9049,1.9081,1.9121,1.9128,1.9168,1.9197,1.9245,1.9263,1.9295,1.9288,1.9299,1.9302,1.9305,1.9307,1.9236,1.9301,1.9301,1.93,1.93,1.93,0,1.891,1.8932,1.8966,1.9007,1.9037,1.9037,1.9069,1.9094,1.913,1.9158,1.9188,1.9232,1.9268,1.9291,1.9327,1.9348,1.935,1.9357,1.9356,1.936,1.9311,1.9301,1.9356,1.9356,1.9356,1.9356,1.9356,1.9356,1.8942,1.8988,1.9001,1.9059,1.908,1.9122,1.914,1.9166,1.9189,1.9239,1.9269,1.9285,1.9311,1.935,1.9383,1.9389,1.9402,1.941,1.9416,1.9369,1.9363,1.9358,1.9349,1.9413,1.9413,1.9463,1.9463,1.9464]}]]